This is the latest recevied weather packets stored in our database for station/object VR2HK-13. If no packets are shown the sender has not sent any weather packets the latest 10 day(s).
| Time | Temp. | Humidity | Pressure | Rain* | Wind** | Luminosity | Snow |
|---|---|---|---|---|---|---|---|
| 1777620251 | 24.44° C | 77% | 1013.4 hPa | 29.97 mm | - | - | - |
| 1777620051 | 24.44° C | 76% | 1013.4 hPa | 30.48 mm | - | - | - |
| 1777619950 | 24.44° C | 76% | 1013.4 hPa | 30.48 mm | - | - | - |
| 1777619741 | 24.44° C | 77% | 1013.5 hPa | 29.21 mm | - | - | - |
| 1777619650 | 24.44° C | 76% | 1013.5 hPa | 29.46 mm | - | - | - |
| 1777619431 | 24.44° C | 76% | 1013.6 hPa | 28.7 mm | - | - | - |
| 1777619350 | 24.44° C | 76% | 1013.6 hPa | 28.19 mm | - | - | - |
| 1777619122 | 24.44° C | 76% | 1013.7 hPa | 27.43 mm | - | - | - |
| 1777619051 | 24.44° C | 76% | 1013.7 hPa | 26.67 mm | - | - | - |
| 1777618813 | 24.44° C | 75% | 1013.8 hPa | 27.18 mm | - | - | - |
| 1777618750 | 24.44° C | 75% | 1013.8 hPa | 26.92 mm | - | - | - |
| 1777618450 | 25° C | 75% | 1013.7 hPa | 28.19 mm | - | - | - |
| 1777618192 | 25° C | 74% | 1013.7 hPa | 27.18 mm | - | - | - |
| 1777618150 | 25° C | 74% | 1013.7 hPa | 27.69 mm | - | - | - |
| 1777617882 | 25° C | 74% | 1013.9 hPa | 28.45 mm | - | - | - |
| 1777617851 | 25° C | 75% | 1013.8 hPa | 28.45 mm | - | - | - |
| 1777617572 | 25° C | 74% | 1013.9 hPa | 30.48 mm | - | - | - |
| 1777617550 | 25° C | 74% | 1013.8 hPa | 30.48 mm | - | - | - |
| 1777617262 | 25° C | 74% | 1013.8 hPa | 28.96 mm | - | - | - |
| 1777617250 | 25° C | 74% | 1013.8 hPa | 28.96 mm | - | - | - |
| 1777616950 | 25° C | 74% | 1013.8 hPa | 28.96 mm | - | - | - |
| 1777616650 | 25.56° C | 74% | 1013.8 hPa | 29.21 mm | - | - | - |
| 1777616641 | 25.56° C | 74% | 1014 hPa | 29.21 mm | - | - | - |
| 1777616350 | 25° C | 74% | 1013.9 hPa | 28.19 mm | - | - | - |
| 1777616331 | 25° C | 74% | 1013.9 hPa | 28.7 mm | - | - | - |
* Rain latest hour (hover to see other rain measurements)
** Current wind speed in m/s (hover to see current wind gust speed)